Cancun, Mexico

8:43 PM on January 16, 2018 (GMT +0000)
Cancun International

Weather History for MMUN - September, 2012

Change the Weather History Date:

Wednesday, September 19, 2012

  Actual Average Record
Temperature  
Mean Temperature 81 °F -  
Max Temperature 89 °F 87 °F 93 °F (2002)
Min Temperature 73 °F 72 °F 69 °F (2007)
Cooling Degree Days 16    
Growing Degree Days 31 (Base 50)    
Moisture  
Dew Point 74 °F    
Average Humidity 77    
Maximum Humidity 94    
Minimum Humidity 52    
Precipitation  
Precipitation 0.15 in - - ()
Sea Level Pressure  
Sea Level Pressure 29.96 in    
Wind  
Wind Speed 5 mph ()    
Max Wind Speed 14 mph    
Max Gust Speed -    
Visibility 6.8 miles    
Events Rain    
Averages and records for this station are not official NWS values.
T = Trace of Precipitation, MM = Missing Value Source: Averaged Metar Reports

Daily Weather History Graph

Daily Weather History Graph

Search for Another Location

Airport or City:

Trip Planner

Search our weather history database for the weather conditions in past years. The results will help you decide how hot, cold, wet, or windy it might be!

Date:

Astronomy

Sep. 19, 2012 Rise Set
Actual Time 6:35 AM CDT 6:46 PM CDT
Civil Twilight 6:13 AM CDT 7:08 PM CDT
Nautical Twilight 5:47 AM CDT 7:34 PM CDT
Astronomical Twilight 5:21 AM CDT 7:59 PM CDT
Moon 10:07 AM CDT (9/19) 9:35 PM CDT (9/19)
Length of Visible Light 12h 54m
Length of Day
12h 10m
Waxing Crescent, 17% of the Moon is Illuminated
Sep 19
Waxing Crescent
Sep 22
First Quarter
Sep 29
Full
Oct 8
Last Quarter
Oct 15
New

Hourly Weather History & Observations

Time (CDT) Temp. Heat Index Dew Point Humidity Pressure Visibility Wind Dir Wind Speed Gust Speed Precip Events Conditions
12:42 AM 78.8 °F - 75.2 °F 89% 29.96 in 4.0 mi NNE 3.5 mph - N/A Rain Rain
1:07 AM 78.8 °F - 73.4 °F 83% 29.97 in 7.0 mi Calm Calm - N/A   Mostly Cloudy
1:40 AM 77.0 °F - 71.6 °F 83% 29.97 in 4.0 mi East 2.3 mph - N/A Rain Rain
2:40 AM 73.4 °F - 71.6 °F 94% 29.95 in 7.0 mi NW 5.8 mph - N/A   Mostly Cloudy
3:42 AM 77.0 °F - 75.2 °F 94% 29.94 in 7.0 mi NNW 3.5 mph - N/A   Mostly Cloudy
4:40 AM 77.0 °F - 73.4 °F 89% 29.93 in 7.0 mi Calm Calm - N/A   Mostly Cloudy
5:41 AM 75.2 °F - 73.4 °F 94% 29.94 in 7.0 mi Calm Calm - N/A   Mostly Cloudy
6:41 AM 77.0 °F - 75.2 °F 94% 29.94 in 7.0 mi ESE 4.6 mph - N/A   Mostly Cloudy
7:43 AM 78.8 °F - 77.0 °F 94% 29.96 in 7.0 mi Calm Calm - N/A   Mostly Cloudy
8:46 AM 82.4 °F 90.9 °F 77.0 °F 84% 29.97 in 7.0 mi SE 5.8 mph - N/A   Mostly Cloudy
9:41 AM 86.0 °F 96.9 °F 77.0 °F 74% 29.99 in 7.0 mi SSE 11.5 mph - N/A   Mostly Cloudy
10:41 AM 87.8 °F 99.7 °F 77.0 °F 70% 29.99 in 7.0 mi SSE 11.5 mph - N/A   Mostly Cloudy
11:41 AM 87.8 °F 97.6 °F 75.2 °F 66% 29.99 in 7.0 mi SE 13.8 mph - N/A   Mostly Cloudy
12:45 PM 89.6 °F 99.8 °F 75.2 °F 62% 29.97 in 7.0 mi SSE 11.5 mph - N/A   Mostly Cloudy
1:44 PM 89.6 °F 94.7 °F 69.8 °F 52% 29.96 in 7.0 mi SSE 12.7 mph - N/A   Mostly Cloudy
2:47 PM 89.6 °F 98.2 °F 73.4 °F 59% 29.94 in 7.0 mi SE 13.8 mph - N/A   Mostly Cloudy
3:46 PM 89.6 °F 98.2 °F 73.4 °F 59% 29.94 in 7.0 mi SE 11.5 mph - N/A   Mostly Cloudy
4:43 PM 87.8 °F 97.6 °F 75.2 °F 66% 29.91 in 7.0 mi East 9.2 mph - N/A   Mostly Cloudy
5:46 PM 86.0 °F 95.1 °F 75.2 °F 70% 29.92 in 7.0 mi ESE 6.9 mph - N/A   Mostly Cloudy
6:45 PM 84.2 °F 92.3 °F 75.2 °F 74% 29.93 in 7.0 mi ESE 5.8 mph - N/A   Mostly Cloudy
7:44 PM 82.4 °F 87.2 °F 71.6 °F 70% 29.95 in 7.0 mi ESE 6.9 mph - N/A   Mostly Cloudy
8:42 PM 80.6 °F 83.9 °F 69.8 °F 70% 29.96 in 7.0 mi Calm Calm - N/A   Mostly Cloudy
9:48 PM 80.6 °F 85.4 °F 73.4 °F 79% 29.95 in 7.0 mi ENE 5.8 mph - N/A   Mostly Cloudy
10:48 PM 80.6 °F 85.4 °F 73.4 °F 79% 30.00 in 7.0 mi Calm Calm - N/A   Mostly Cloudy
11:46 PM 80.6 °F 86.2 °F 75.2 °F 84% 29.98 in 7.0 mi East 5.8 mph - N/A   Mostly Cloudy